Time,TemperatureF,DewpointF,PressureIn,WindDirection,WindDirectionDegrees,WindSpeedMPH,WindSpeedGustMPH,Humidity,HourlyPrecipIn,Conditions,Clouds,dailyrainin,SoftwareType,DateUTC
2013-05-08 00:00:00,66.3,53.0,29.92,SE,134,4.0,7.0,62,0.00,,,0.00,weatherlink.com 1.10,2013-05-08 05:00:00,
2013-05-08 00:15:00,66.2,53.0,29.92,SE,136,0.0,4.0,62,0.00,,,0.00,weatherlink.com 1.10,2013-05-08 05:15:00,
2013-05-08 00:30:00,65.4,53.0,29.92,ESE,106,0.0,1.0,64,0.00,,,0.00,weatherlink.com 1.10,2013-05-08 05:30:00,
2013-05-08 00:45:00,64.2,53.0,29.92,ESE,108,0.0,0.0,67,0.00,,,0.00,weatherlink.com 1.10,2013-05-08 05:45:00,
2013-05-08 01:00:00,64.0,53.0,29.92,SE,127,0.0,0.0,68,0.00,,,0.00,weatherlink.com 1.10,2013-05-08 06:00:00,
2013-05-08 01:15:00,64.0,53.0,29.91,SE,138,3.0,5.0,68,0.00,,,0.00,weatherlink.com 1.10,2013-05-08 06:15:00,
2013-05-08 01:30:00,64.4,54.0,29.91,SE,128,1.0,11.0,68,0.00,,,0.00,weatherlink.com 1.10,2013-05-08 06:30:00,
2013-05-08 01:45:00,65.1,54.0,29.90,SE,124,3.0,9.0,67,0.00,,,0.00,weatherlink.com 1.10,2013-05-08 06:45:00,
2013-05-08 02:00:00,63.4,53.0,29.90,ESE,105,0.0,7.0,70,0.00,,,0.00,weatherlink.com 1.10,2013-05-08 07:00:00,
2013-05-08 02:15:00,62.3,53.0,29.90,ESE,116,0.0,5.0,72,0.00,,,0.00,weatherlink.com 1.10,2013-05-08 07:15:00,
2013-05-08 02:30:00,62.1,53.0,29.89,ESE,117,0.0,2.0,73,0.00,,,0.00,weatherlink.com 1.10,2013-05-08 07:30:00,
2013-05-08 02:45:00,61.7,53.0,29.89,ESE,123,0.0,2.0,74,0.00,,,0.00,weatherlink.com 1.10,2013-05-08 07:45:00,
2013-05-08 03:00:00,61.7,53.0,29.89,SE,126,0.0,4.0,74,0.00,,,0.00,weatherlink.com 1.10,2013-05-08 08:00:00,
2013-05-08 03:15:00,61.6,53.0,29.88,SE,126,0.0,0.0,74,0.00,,,0.00,weatherlink.com 1.10,2013-05-08 08:15:00,
2013-05-08 03:30:00,61.3,53.0,29.88,SE,125,0.0,0.0,74,0.00,,,0.00,weatherlink.com 1.10,2013-05-08 08:30:00,
2013-05-08 03:45:00,61.8,53.0,29.87,ESE,122,0.0,6.0,73,0.00,,,0.00,weatherlink.com 1.10,2013-05-08 08:45:00,
2013-05-08 04:00:00,62.6,53.0,29.87,SE,137,9.0,9.0,71,0.00,,,0.00,weatherlink.com 1.10,2013-05-08 09:00:00,
2013-05-08 04:15:00,62.9,53.0,29.86,ESE,109,0.0,8.0,70,0.00,,,0.00,weatherlink.com 1.10,2013-05-08 09:15:00,
2013-05-08 04:30:00,63.6,53.0,29.86,SE,140,11.0,11.0,68,0.00,,,0.00,weatherlink.com 1.10,2013-05-08 09:30:00,
2013-05-08 04:46:00,64.5,53.0,29.86,SE,131,7.0,11.0,66,0.00,,,0.00,weatherlink.com 1.10,2013-05-08 09:46:00,
2013-05-08 05:01:00,64.6,53.0,29.86,South,171,4.0,13.0,66,0.00,,,0.00,weatherlink.com 1.10,2013-05-08 10:01:00,
2013-05-08 05:16:00,64.4,53.0,29.86,SE,132,6.0,11.0,66,0.00,,,0.00,weatherlink.com 1.10,2013-05-08 10:16:00,
2013-05-08 05:31:00,64.2,53.0,29.86,SE,140,5.0,11.0,67,0.00,,,0.00,weatherlink.com 1.10,2013-05-08 10:31:00,
2013-05-08 05:46:00,63.8,53.0,29.86,SE,146,3.0,8.0,68,0.00,,,0.00,weatherlink.com 1.10,2013-05-08 10:46:00,
2013-05-08 06:01:00,63.8,53.0,29.85,SSE,148,3.0,11.0,68,0.00,,,0.00,weatherlink.com 1.10,2013-05-08 11:01:00,
2013-05-08 06:16:00,63.5,53.0,29.86,SSE,162,3.0,7.0,69,0.00,,,0.00,weatherlink.com 1.10,2013-05-08 11:16:00,
2013-05-08 06:31:00,63.0,53.0,29.86,SSE,157,4.0,6.0,70,0.00,,,0.00,weatherlink.com 1.10,2013-05-08 11:31:00,
2013-05-08 06:46:00,62.8,53.0,29.86,SSE,156,2.0,7.0,71,0.00,,,0.00,weatherlink.com 1.10,2013-05-08 11:46:00,
2013-05-08 07:01:00,62.8,54.0,29.87,SSE,158,0.0,6.0,72,0.00,,,0.00,weatherlink.com 1.10,2013-05-08 12:01:00,
2013-05-08 07:16:00,63.1,54.0,29.87,ESE,117,0.0,5.0,72,0.00,,,0.00,weatherlink.com 1.10,2013-05-08 12:16:00,
2013-05-08 07:31:00,62.5,54.0,29.89,North,355,0.0,0.0,73,0.00,,,0.00,weatherlink.com 1.10,2013-05-08 12:31:00,
2013-05-08 07:46:00,63.2,54.0,29.89,North,5,0.0,0.0,73,0.00,,,0.00,weatherlink.com 1.10,2013-05-08 12:46:00,
2013-05-08 08:01:00,64.9,55.0,29.89,SSE,148,3.0,5.0,70,0.00,,,0.00,weatherlink.com 1.10,2013-05-08 13:01:00,
2013-05-08 08:16:00,66.0,56.0,29.89,SE,140,8.0,8.0,69,0.00,,,0.00,weatherlink.com 1.10,2013-05-08 13:16:00,
2013-05-08 08:31:00,67.6,56.0,29.90,SSE,164,1.0,7.0,67,0.00,,,0.00,weatherlink.com 1.10,2013-05-08 13:31:00,
2013-05-08 08:46:00,68.3,56.0,29.90,SSW,196,4.0,8.0,65,0.00,,,0.00,weatherlink.com 1.10,2013-05-08 13:46:00,
2013-05-08 09:01:00,69.8,57.0,29.90,SW,232,2.0,11.0,63,0.00,,,0.00,weatherlink.com 1.10,2013-05-08 14:01:00,
2013-05-08 09:16:00,69.9,56.0,29.90,SSW,211,5.0,17.0,61,0.00,,,0.00,weatherlink.com 1.10,2013-05-08 14:16:00,
2013-05-08 09:31:00,69.7,56.0,29.90,SSW,200,3.0,10.0,63,0.00,,,0.00,weatherlink.com 1.10,2013-05-08 14:31:00,
2013-05-08 09:46:00,71.7,56.0,29.90,South,178,2.0,12.0,59,0.00,,,0.00,weatherlink.com 1.10,2013-05-08 14:46:00,
2013-05-08 10:01:00,73.3,57.0,29.90,South,182,3.0,17.0,56,0.00,,,0.00,weatherlink.com 1.10,2013-05-08 15:01:00,
2013-05-08 10:16:00,75.1,57.0,29.90,SSW,211,12.0,16.0,54,0.00,,,0.00,weatherlink.com 1.10,2013-05-08 15:16:00,
2013-05-08 10:31:00,76.1,57.0,29.90,South,176,10.0,15.0,52,0.00,,,0.00,weatherlink.com 1.10,2013-05-08 15:31:00,
2013-05-08 10:46:00,77.8,58.0,29.90,SSW,200,0.0,14.0,50,0.00,,,0.00,weatherlink.com 1.10,2013-05-08 15:46:00,
2013-05-08 11:01:00,77.9,57.0,29.90,South,169,5.0,18.0,48,0.00,,,0.00,weatherlink.com 1.10,2013-05-08 16:01:00,
2013-05-08 11:16:00,78.3,57.0,29.90,SW,215,12.0,18.0,48,0.00,,,0.00,weatherlink.com 1.10,2013-05-08 16:16:00,
2013-05-08 11:31:00,79.7,55.0,29.90,SSE,161,1.0,23.0,43,0.00,,,0.00,weatherlink.com 1.10,2013-05-08 16:31:00,
2013-05-08 11:46:00,80.6,55.0,29.90,SE,142,15.0,20.0,41,0.00,,,0.00,weatherlink.com 1.10,2013-05-08 16:46:00,
2013-05-08 12:01:00,80.7,55.0,29.90,SSW,198,7.0,16.0,41,0.00,,,0.00,weatherlink.com 1.10,2013-05-08 17:01:00,
2013-05-08 12:16:00,81.2,55.0,29.89,SSW,209,5.0,18.0,40,0.00,,,0.00,weatherlink.com 1.10,2013-05-08 17:16:00,
2013-05-08 12:31:00,81.5,54.0,29.88,South,171,7.0,18.0,39,0.00,,,0.00,weatherlink.com 1.10,2013-05-08 17:31:00,
2013-05-08 12:46:00,82.0,52.0,29.88,SSE,158,3.0,18.0,36,0.00,,,0.00,weatherlink.com 1.10,2013-05-08 17:46:00,
2013-05-08 13:02:00,82.4,51.0,29.87,SSE,164,9.0,22.0,34,0.00,,,0.00,weatherlink.com 1.10,2013-05-08 18:02:00,
2013-05-08 13:17:00,83.0,53.0,29.87,SE,140,13.0,16.0,36,0.00,,,0.00,weatherlink.com 1.10,2013-05-08 18:17:00,
2013-05-08 13:32:00,83.4,50.0,29.86,South,177,9.0,21.0,31,0.00,,,0.00,weatherlink.com 1.10,2013-05-08 18:32:00,
2013-05-08 13:47:00,84.2,45.0,29.86,South,173,12.0,20.0,25,0.00,,,0.00,weatherlink.com 1.10,2013-05-08 18:47:00,
2013-05-08 14:02:00,84.7,45.0,29.86,SSE,156,7.0,21.0,25,0.00,,,0.00,weatherlink.com 1.10,2013-05-08 19:02:00,
2013-05-08 14:17:00,85.1,44.0,29.86,SSE,158,14.0,22.0,24,0.00,,,0.00,weatherlink.com 1.10,2013-05-08 19:17:00,
2013-05-08 14:32:00,84.8,45.0,29.85,SSE,157,23.0,23.0,25,0.00,,,0.00,weatherlink.com 1.10,2013-05-08 19:32:00,
2013-05-08 14:47:00,85.3,46.0,29.85,South,173,6.0,20.0,25,0.00,,,0.00,weatherlink.com 1.10,2013-05-08 19:47:00,
2013-05-08 15:02:00,84.8,45.0,29.85,South,182,11.0,25.0,25,0.00,,,0.00,weatherlink.com 1.10,2013-05-08 20:02:00,
2013-05-08 15:17:00,84.3,46.0,29.85,SSE,167,16.0,26.0,26,0.00,,,0.00,weatherlink.com 1.10,2013-05-08 20:17:00,
2013-05-08 15:32:00,85.4,47.0,29.84,SSW,196,7.0,20.0,26,0.00,,,0.00,weatherlink.com 1.10,2013-05-08 20:32:00,
2013-05-08 15:47:00,85.4,47.0,29.84,SSW,211,11.0,23.0,26,0.00,,,0.00,weatherlink.com 1.10,2013-05-08 20:47:00,
2013-05-08 16:02:00,84.2,47.0,29.83,SE,144,14.0,25.0,27,0.00,,,0.00,weatherlink.com 1.10,2013-05-08 21:02:00,
2013-05-08 16:17:00,84.3,50.0,29.83,South,190,3.0,27.0,30,0.00,,,0.00,weatherlink.com 1.10,2013-05-08 21:17:00,
2013-05-08 16:32:00,83.0,51.0,29.82,SE,140,15.0,21.0,33,0.00,,,0.00,weatherlink.com 1.10,2013-05-08 21:32:00,
2013-05-08 16:47:00,82.8,52.0,29.82,SE,144,11.0,22.0,35,0.00,,,0.00,weatherlink.com 1.10,2013-05-08 21:47:00,
2013-05-08 17:02:00,83.6,53.0,29.81,SE,140,15.0,26.0,35,0.00,,,0.00,weatherlink.com 1.10,2013-05-08 22:02:00,
2013-05-08 17:17:00,83.2,55.0,29.80,SE,138,21.0,23.0,38,0.00,,,0.00,weatherlink.com 1.10,2013-05-08 22:17:00,
2013-05-08 17:32:00,82.9,56.0,29.79,SE,143,11.0,24.0,40,0.00,,,0.00,weatherlink.com 1.10,2013-05-08 22:32:00,
2013-05-08 17:47:00,82.3,58.0,29.78,SSE,153,13.0,20.0,44,0.00,,,0.00,weatherlink.com 1.10,2013-05-08 22:47:00,
2013-05-08 18:02:00,83.0,60.0,29.77,SE,140,12.0,21.0,46,0.00,,,0.00,weatherlink.com 1.10,2013-05-08 23:02:00,
2013-05-08 18:17:00,81.0,61.0,29.78,South,179,3.0,22.0,50,0.00,,,0.00,weatherlink.com 1.10,2013-05-08 23:17:00,
2013-05-08 18:32:00,80.2,61.0,29.79,SSE,168,11.0,24.0,52,0.00,,,0.00,weatherlink.com 1.10,2013-05-08 23:32:00,
2013-05-08 18:47:00,79.4,61.0,29.78,SE,130,9.0,26.0,54,0.00,,,0.00,weatherlink.com 1.10,2013-05-08 23:47:00,
2013-05-08 19:02:00,78.8,61.0,29.80,SSE,167,10.0,22.0,54,0.00,,,0.00,weatherlink.com 1.10,2013-05-09 00:02:00,
2013-05-08 19:17:00,78.6,60.0,29.79,SSE,155,20.0,23.0,54,0.00,,,0.00,weatherlink.com 1.10,2013-05-09 00:17:00,
2013-05-08 19:32:00,78.1,61.0,29.79,South,186,10.0,20.0,55,0.00,,,0.00,weatherlink.com 1.10,2013-05-09 00:32:00,
2013-05-08 19:47:00,77.8,60.0,29.77,South,185,18.0,23.0,55,0.00,,,0.00,weatherlink.com 1.10,2013-05-09 00:47:00,
2013-05-08 20:02:00,77.3,60.0,29.79,South,190,0.0,23.0,56,0.00,,,0.00,weatherlink.com 1.10,2013-05-09 01:02:00,
2013-05-08 20:17:00,77.2,60.0,29.79,South,175,17.0,18.0,55,0.00,,,0.00,weatherlink.com 1.10,2013-05-09 01:17:00,
2013-05-08 20:32:00,77.1,60.0,29.77,SSE,162,10.0,23.0,55,0.00,,,0.00,weatherlink.com 1.10,2013-05-09 01:32:00,
2013-05-08 20:47:00,77.0,60.0,29.80,SSE,161,8.0,16.0,56,0.00,,,0.00,weatherlink.com 1.10,2013-05-09 01:47:00,
2013-05-08 21:02:00,77.0,60.0,29.82,SE,144,8.0,16.0,56,0.00,,,0.00,weatherlink.com 1.10,2013-05-09 02:02:00,
2013-05-08 21:17:00,71.8,63.0,29.80,SE,143,8.0,18.0,74,0.01,,,0.01,weatherlink.com 1.10,2013-05-09 02:17:00,
2013-05-08 21:32:00,68.9,64.0,29.78,SSE,164,5.0,18.0,83,0.03,,,0.03,weatherlink.com 1.10,2013-05-09 02:32:00,
2013-05-08 21:47:00,69.3,64.0,29.78,SSE,148,5.0,17.0,82,0.05,,,0.05,weatherlink.com 1.10,2013-05-09 02:47:00,
2013-05-08 22:02:00,69.4,63.0,29.79,SE,137,5.0,11.0,81,0.06,,,0.06,weatherlink.com 1.10,2013-05-09 03:02:00,
2013-05-08 22:17:00,70.2,63.0,29.80,SSE,147,1.0,10.0,79,0.06,,,0.07,weatherlink.com 1.10,2013-05-09 03:17:00,
2013-05-08 22:32:00,69.9,64.0,29.81,SE,146,0.0,6.0,80,0.04,,,0.07,weatherlink.com 1.10,2013-05-09 03:32:00,
2013-05-08 22:47:00,69.6,64.0,29.81,SE,134,0.0,6.0,81,0.03,,,0.08,weatherlink.com 1.10,2013-05-09 03:47:00,
2013-05-08 23:02:00,69.1,64.0,29.82,SE,140,5.0,7.0,83,0.02,,,0.08,weatherlink.com 1.10,2013-05-09 04:02:00,
2013-05-08 23:17:00,69.6,64.0,29.81,SE,130,4.0,10.0,82,0.02,,,0.09,weatherlink.com 1.10,2013-05-09 04:17:00,
2013-05-08 23:32:00,69.5,64.0,29.82,SE,144,0.0,7.0,82,0.02,,,0.09,weatherlink.com 1.10,2013-05-09 04:32:00,
2013-05-08 23:47:00,69.6,64.0,29.82,SE,138,7.0,10.0,81,0.01,,,0.09,weatherlink.com 1.10,2013-05-09 04:47:00,